Regional Weather Roundup
Issued by NWS

Home | Current Version | Previous Version | Graphics & Text | Print | Product List | Glossary Off
Versions: 1 2 3 4 5 6 7 8 9 10 11 12 13 14 15 16 17 18 19 20 21 22 23 24 25 26 27 28 29 30 31 32 33 34 35 36 37 38 39 40 41 42 43 44 45 46 47 48 49 50

741
ASUS43 KMKX 060920
RWRWI

WISCONSIN REGIONAL WEATHER ROUNDUP
NATIONAL WEATHER SERVICE MILWAUKEE/SULLIVAN WI
300 AM CST SAT FEB 06 2016

NOTE: "FAIR" INDICATES FEW OR NO CLOUDS BELOW 12,000 FEET WITH NO
SIGNIFICANT WEATHER AND/OR OBSTRUCTIONS TO VISIBILITY.

WIZ001-002-006>008-014>016-023>028-061000-
NORTHWEST WISCONSIN

CITY           SKY/WX    TMP DP  RH WIND       PRES   REMARKS
SUPERIOR ARPT  CLOUDY    23  17  77 SW9       30.09F WCI  13
ASHLAND        CLOUDY    23  18  81 SW9       30.09F WCI  13
HAYWARD        CLOUDY    22  20  92 SW7       30.09F FOG     WCI  13
SIREN          CLOUDY    25  21  87 SW5       30.12S WCI  19
CUMBERLAND     CLOUDY    23  21  93 SW8       30.11S FOG     WCI  14
RICE LAKE      CLOUDY    24  22  93 CALM      30.14S FOG
CHETEK         CLOUDY    23  22  96 SW3       30.14S FOG
LADYSMITH      CLOUDY    22  21  93 SW6       30.13F FOG     WCI  15
EAU CLAIRE     CLOUDY    24  20  84 SW6       30.15S WCI  17
MENOMONIE      CLOUDY    26  21  83 SW3       30.16S
NEW RICHMOND   CLOUDY    25  22  89 SW5       30.14S FOG     WCI  19
OSCEOLA        CLOUDY    26  23  89 SW3       30.16F
$$

WIZ003>005-009-010-017-018-061000-
NORTH CENTRAL WISCONSIN

CITY           SKY/WX    TMP DP  RH WIND       PRES   REMARKS
MANITOWISH WTR CLOUDY    19  19 100 SW9       30.05F FOG     WCI   9
ARBOR VITAE    CLOUDY    22  19  91 W5        30.06S FOG     WCI  15
WOODRUFF       CLOUDY    22  19  91 W5        30.06S FOG     WCI  15
RHINELANDER    CLOUDY    20  15  81 SW8       30.07S WCI  10
EAGLE RIVER    CLOUDY    20  16  83 W8        30.05S WCI  11
LAND O LAKES   CLOUDY    21  19  91 SW5       30.05S FOG     WCI  15
PHILLIPS       CLOUDY    19  19  96 SW7       30.08F FOG     WCI  10
TOMAHAWK       CLOUDY    20  17  85 SW3       30.09F
MEDFORD        CLOUDY    20  20  98 SW9       30.10F FOG     WCI  10
MERRILL        CLOUDY    21  18  86 W8        30.12S WCI  12
$$

WIZ029-030-035-036-043>047-061000-
CENTRAL WISCONSIN

CITY           SKY/WX    TMP DP  RH WIND       PRES   REMARKS
WAUSAU         CLOUDY    23  18  81 SW10      30.11F WCI  12
MOSINEE        FLURRIES  23  21  93 SW12      30.14S WCI  12
MARSHFIELD     CLOUDY    23  18  81 W12       30.13S WCI  12
STEVENS POINT  FLURRIES  22  18  85 SW8       30.15F WCI  12
WAUPACA        FLURRIES  27  19  73 SW7       30.18S WCI  19
WAUTOMA        MIX PCPN  25  20  81 SW7       30.19F WCI  17
WISC RAPIDS    FLURRIES  24  18  77 SW8       30.17F WCI  15
CAMP DOUGLAS   CLOUDY    26  26  99 SW10      30.17F WCI  16
$$

WIZ011>013-019>022-031-037>040-048>050-061000-
NORTHEAST WISCONSIN

CITY           SKY/WX    TMP DP  RH WIND       PRES   REMARKS
ANTIGO         FLURRIES  20  17  88 W12       30.09F WCI   8
SHAWANO        FLURRIES  27  20  75 SW10      30.15F WCI  17
OCONTO         CLOUDY    25  19  79 SW10      30.15F WCI  15
STURGEON BAY   CLOUDY    25  16  68 SW13G20   30.16F WCI  13
GREEN BAY      CLOUDY    25  18  74 SW10      30.18F WCI  15
MANITOWOC      CLOUDY    28  19  69 W13       30.20F WCI  17
APPLETON       FLURRIES  25  18  74 SW10      30.16F WCI  15
CLINTONVILLE   FLURRIES  27  19  74 SW9       30.16F WCI  17
OSHKOSH        CLOUDY    25  18  74 SW8       30.19F WCI  16
$$

WIZ032>034-041-042-053>061-061000-
SOUTHWEST WISCONSIN

CITY           SKY/WX    TMP DP  RH WIND       PRES   REMARKS
LA CROSSE      CLOUDY    26  21  81 S6        30.20S WCI  19
SPARTA         CLOUDY    26  23  87 CALM      30.19F
VIROQUA        CLOUDY    25  22  89 SW14      30.17S WCI  13
BOSCOBEL       CLOUDY    28  21  75 S7        30.22F WCI  21
PRAIRIE DU CHI CLOUDY    28  20  71 S3        30.22F
PLATTEVILLE    CLOUDY    26  23  87 SW7       30.23S WCI  19
$$

WIZ056-057-062-063-064-067-068-061000-
SOUTH CENTRAL WISCONSIN

CITY           SKY/WX    TMP DP  RH WIND       PRES   REMARKS
REEDSBURG      CLOUDY    26  19  76 SW6       30.20S WCI  19
BARABOO/DELLS  CLOUDY    26  19  73 SW10      30.19F WCI  16
LONE ROCK      CLOUDY    27  19  72 CALM      30.23F
MINERAL POINT  CLOUDY    28  25  86 S9        30.20F WCI  20
MADISON        CLOUDY    27  19  72 VRB5      30.22F WCI  22
MIDDLETON      CLOUDY    28  21  74 SW8       30.22S WCI  20
WATERTOWN      CLOUDY    27  23  84 SW7       30.22F WCI  20
MONROE         CLOUDY    28  23  80 S9        30.21F WCI  20
JANESVILLE     CLOUDY    30  27  86 SW7       30.23F WCI  23
$$

WIZ051-052-058>065-066-070>072-061000-
SOUTHEAST WISCONSIN

CITY           SKY/WX    TMP DP  RH WIND       PRES   REMARKS
MILWAUKEE      CLOUDY    29  20  69 SW7       30.24F WCI  22
WAUKESHA       CLOUDY    27  21  80 SW7       30.23F WCI  19
MILWAUKEE/TIMM CLOUDY    28  19  69 SW9       30.24F WCI  20
RACINE         CLOUDY    28  21  75 SW8       30.26F WCI  20
BURLINGTON     CLOUDY    26  21  83 SW7       30.25F WCI  18
KENOSHA        CLOUDY    27  22  81 W9        30.26S WCI  18
FOND DU LAC    CLOUDY    26  19  74 SW8       30.20F WCI  18
SHEBOYGAN      CLOUDY    27  18  69 SW12      30.21S WCI  17
WEST BEND      CLOUDY    28  19  69 SW3       30.21F
JUNEAU         CLOUDY    26  20  80 SW9       30.23S WCI  16
$$

LSZ147-162-061000-
LAKE SUPERIOR

STATION/POSITION TIME  TEMP    WIND        PRES    WAVE
                       AIR SEA DIR/SP/G            HT/PER
                 (UTC) (F)     (DEG/KT/KT) (MB)    (FT/S)
DEVILS ISLAND    0900   29     270/ 18/ 22 1018.7F
SAXON HARBOR     0840   25                 1018.6S
$$

LMZ867-665-643>646-061000-
LAKE MICHIGAN

STATION/POSITION TIME  TEMP    WIND        PRES    WAVE
                       AIR SEA DIR/SP/G            HT/PER
                 (UTC) (F)     (DEG/KT/KT) (MB)    (FT/S)
CHAMBERS ISLAND  0800   23     200/  8/ 13 1021.0S
ALGOMA LAKESHORE 0841          280/ 14/ 19   N/A
KEWAUNEE LAKESHO 0800   26     260/ 12/ 16 1021.4F
SHEBOYGAN LAKESH 0900   29     240/ 13/ 15 1024.1F
PORT WASHINGTON  0800   29     250/  8/ 14 1024.7F
MILWAUKEE LAKESH 0810   30     240/  8/ 10   N/A
KENOSHA   LAKESH 0900   27     260/  9/ 12 1024.7S
$$

TC  - TEMPERATURE IN CELSIUS
VSB - VISIBILITY IN STATUTE MILES
WCI - WIND CHILL INDEX
HX  - HEAT INDEX





USA.gov is the U.S. government's official web portal to all federal, state and local government web resources and services.